Regional Weather Roundup
Issued by NWS

Home | Current Version | Previous Version | Text Only | Print | Product List | Glossary On
Versions: 1 2 3 4 5 6 7 8 9 10 11 12 13 14 15 16 17 18 19 20 21 22 23 24 25 26 27
000
ASUS42 KKEY 161510
RWRKEY

FLORIDA REGIONAL WEATHER ROUNDUP FOR THE FLORIDA KEYS
NATIONAL WEATHER SERVICE KEY WEST FLORIDA
1000 AM EST MON JAN 16 2017

...SOUTH FLORIDA AND THE KEYS...

CITY           SKY/WX    TMP DP  RH WIND       PRES   REMARKS
FORT MYERS     PTSUNNY   72  63  73 E12       30.25R
SW REGIONAL AP CLOUDY    71  62  73 E9        30.26R
NAPLES         PTSUNNY   75  65  70 E7        30.24R
MIAMI          PTSUNNY   79  62  56 E17       30.24R
WEST KENDALL   MOSUNNY   77  63  61 E15       30.23R
HOMESTEAD      MOSUNNY   76  66  70 E14       30.22R
MARATHON       PTSUNNY   79  65  62 E10G21    30.20R
BOCA CHICA NAS MOSUNNY   79  64  60 SE16      30.20R
KEY WEST INTL  NOT AVBL

...INTERNATIONAL WEATHER...

CITY           SKY/WX    TMP DP  RH WIND       PRES   REMARKS
NASSAU BAHAMAS NOT AVBL
CANCUN MEXICO  PTSUNNY   79  68  69 E10       30.09R
COZUMEL MEXICO MOSUNNY   79  68  69 SE13      30.06R

ADJACENT COASTAL WATERS...

STATION/POSITION TIME  SKY/WX   TEMP    WIND        PRES    WAVE
                                AIR SEA DIR/SP/G            HT/PER
                 (UTC)          (F)     (DEG/KT/KT) (MB)    (FT/S)
PULASKI SHOAL LI 1500            74      90/ 13/ 15 1022.7R
SAND KEY         1450            76     130/ 20/ 23 1022.8R
LONG KEY         1400            74 70   90/ 15/ 18 1022.6R
MOLASSES REEF    1300            75 76  120/ 19/ 21 1022.1R
FOWEY ROCKS      1400            75 76   90/ 22/ 25 1023.5R

$$




USA.gov is the U.S. government's official web portal to all federal, state and local government web resources and services.